www.pogodaiklimat.ru

Погода и климат >> Архив погоды >> Хорватия >> Загреб


АРХИВ ПОГОДЫ в Загребе

Время (UTC), дата Ветер
(напр.,м/с)
 
Видим.   Явления Облачность Т
(С)
Тd
(С)
f
(%)
Тe
(С)
Тes
(С)
Комфортность P
(гПа)
Po
(гПа)
Тmin
(С)
Tmax
(С)
R
(мм)
R24
(мм)
S
(см)
13 15.08 Ю 2 50 км 8/6 1000 м
[Cu med, cong Ci fib]
+25.0 +8.9 36 +26 +30 жарко 1015.2 1000.5
14 15.08 ЮВ 3 50 км 8/4 1000 м
[Cu med, cong Cc]
+25.0 +10.4 40 +26 +30 жарко 1014.8 1000.2
15 15.08 Ю 2 50 км 10/3 1000 м
[Cu hum Cc]
+24.3 +10.1 41 +25 +28 комфорт 1014.5 999.8
16 15.08 Ю 2 50 км 9/1 1000 м
[Cu hum Cc]
+24.3 +9.9 40 +25 +27 комфорт 1014.4 999.7
17 15.08 Ю 1 50 км 3/0
[Ci fib]
+24.1 +10.1 41 +25 +26 комфорт 1014.3 999.6
18 15.08 Ю 1 30 км 1/0
[Ac trans]
+22.4 +11.0 48 +24 +24 комфорт 1014.6 999.8 +26.0
19 15.08 С 1 25 км ясно +18.4 +12.9 70 +20 +20 холодно 1015.2 1000.2
20 15.08 СЗ 1 20 км ясно +17.5 +11.9 70 +19 +19 прохладно 1015.5 1000.5
21 15.08 СЗ 1 20 км ясно +16.9 +12.2 74 +18 +18 прохладно 1016.0 1000.9
00 16.08 С 1 20 км 3/0
[Ac trans]
+15.1 +11.8 81 +16 +16 прохладно 1016.2 1001.0
03 16.08 штиль 0 20 км 5/5 1000 м
[Sc]
+15.3 +12.9 86 +15 +15 прохладно 1016.1 1001.0
04 16.08 З 1 20 км 6/6 1000 м
[Sc]
+15.7 +12.8 83 +16 +16 холодно 1016.1 1001.0
05 16.08 Ю 1 25 км 8/4 1000 м
[Sc Ac trans]
+16.3 +12.4 78 +17 +17 прохладно 1016.6 1001.5
06 16.08 В 1 25 км 9/6 1000 м
[Sc Ac As]
+16.8 +13.3 80 +18 +18 по сезону 1017.1 1002.0 +14.2
07 16.08 ЮВ 1 25 км 10/8 1000 м
[Sc Ac As]
+16.6 +13.6 82 +17 +18 очень
холодно
1017.9 1002.8
08 16.08 В 1 12 км слаб. дождь 10/10 1000 м
[Sc]
+17.3 +14.2 82 +18 +18 очень
холодно
1018.4 1003.3
09 16.08 З 1 12 км дождь 10/10 1000 м
[Sc]
+17.1 +15.3 89 +18 +18 холодно 1018.9 1003.8
10 16.08 З 1 15 км дождь 10/10 1000 м
[Frnb]
+18.1 +15.2 83 +19 +19 очень
холодно
1018.8 1003.8
11 16.08 З 1 20 км слаб. дождь 10/8 1000 м
[Frnb Ac trans]
+18.7 +15.3 81 +21 +22 комфорт 1018.9 1003.9
12 16.08 ЮВ 1 35 км в посл. час дождь 8/3 1000 м
[Cu Sc Ac trans Ci sp]
+20.7 +14.8 69 +25 +32 комфорт 1018.4 1003.5 2
13 16.08 СЗ 1 40 км 5/3 1000 м
[Cu Sc Ac trans]
+22.6 +15.0 62 +26 +35 жарко 1017.8 1003.0
14 16.08 ЮВ 1 40 км 4/3 1000 м
[Cu med, cong Ac As]
+23.6 +14.0 55 +26 +33 жарко 1017.1 1002.4
15 16.08 ЮВ 1 40 км {дождь} 5/3 1000 м
[Cu med, cong Ac As]
+23.2 +14.3 57 +27 +30 душно 1016.8 1002.1
16 16.08 В 2 40 км 5/3 1000 м
[Cu med, cong Ac trans]
+23.4 +14.9 59 +27 +29 душно 1016.7 1002.0
17 16.08 ЮВ 1 35 км 3/3 1000 м
[Cu med, cong Ac trans]
+22.0 +14.7 63 +25 +26 комфорт 1016.6 1001.8
18 16.08 З 1 25 км 3/1 1000 м
[Cu hum Ac trans]
+20.6 +15.9 74 +25 +25 комфорт 1017.0 1002.1 +24.5 2
19 16.08 СЗ 1 20 км 3/0
[Ac trans Ci fib]
+18.3 +15.9 86 +20 +20 холодно 1017.6 1002.6
20 16.08 СЗ 1 20 км 1/0
[Ac trans]
+17.2 +15.2 88 +18 +18 холодно 1018.2 1003.1
21 16.08 СЗ 1 20 км ясно +16.3 +15.0 92 +17 +17 холодно 1018.2 1003.1
00 17.08 штиль 0 20 км ясно +14.4 +13.4 94 +14 +14 прохладно 1018.1 1002.9
03 17.08 СЗ 1 25 км ясно +13.2 +12.7 97 +13 +13 холодно 1017.8 1002.5
04 17.08 штиль 0 35 км ясно +12.6 +11.9 95 +12 +12 очень
холодно
1017.8 1002.5
05 17.08 ЮВ 1 50 км 1/0
[Ci fib]
+13.6 +12.7 94 +14 +14 холодно 1018.0 1002.7
06 17.08 ЮВ 1 50 км 5/0
[Ci fib]
+16.2 +14.0 87 +17 +20 прохладно 1018.0 1002.9 +12.5
07 17.08 ЮЗ 1 50 км 3/0
[Ci fib]
+18.3 +14.9 81 +20 +26 холодно 1018.5 1003.5
08 17.08 Ю 1 50 км 5/0
[Ci sp]
+21.2 +15.7 71 +24 +34 комфорт 1018.0 1003.2
09 17.08 Ю 2 50 км 8/0
[Ac trans Ci sp]
+21.7 +15.1 66 +25 +34 комфорт 1017.7 1002.9
10 17.08 ЮВ 2 50 км 6/0
[Ac As Ci sp]
+23.0 +15.1 61 +27 +38 душно 1017.6 1002.8
11 17.08 ЮЗ 2 50 км 4/0
[Ac trans Ci sp]
+24.6 +14.5 53 +27 +41 жарко 1017.1 1002.4
12 17.08 ЮЗ 2 50 км 1/0
[Ci fib]
+25.4 +13.2 47 +27 +42 жарко 1016.3 1001.7
13 17.08 Ю 3 50 км 3/0
[Ci fib]
+26.4 +12.3 42 +28 +37 жарко 1015.9 1001.3
14 17.08 Ю 2 50 км 3/0
[Ci fib]
+26.8 +12.7 42 +28 +37 жарко 1015.7 1001.1
15 17.08 Ю 2 50 км 3/0
[Ci fib]
+27.3 +13.7 43 +29 +34 жарко 1015.1 1000.6
16 17.08 Ю 2 50 км 3/0
[Ci fib]
+26.6 +14.4 47 +29 +31 жарко 1014.6 1000.1
17 17.08 Ю 2 35 км 5/0
[Ci sp]
+26.0 +14.0 48 +28 +29 жарко 1014.7 1000.1
18 17.08 СЗ 1 25 км 8/0
[Ac trans Ci sp]
+23.2 +16.8 67 +28 +28 душно 1014.8 1000.1 +27.6
19 17.08 СЗ 1 20 км 6/0
[Ac trans Ci sp]
+20.8 +15.9 74 +25 +25 комфорт 1015.3 1000.5
20 17.08 СЗ 1 20 км 3/0
[Ac trans Ci sp]
+18.9 +15.4 80 +21 +21 комфорт 1015.6 1000.7
21 17.08 С 1 20 км 3/0
[Ac trans Ci sp]
+18.6 +15.1 80 +21 +21 комфорт 1015.7 1000.8
00 18.08 СЗ 1 20 км 5/0
[Ci sp]
+16.4 +14.4 88 +17 +17 по сезону 1015.9 1000.8
03 18.08 С 1 20 км 6/0
[Ac As Ci sp]
+15.4 +14.1 92 +16 +16 прохладно 1015.5 1000.4
04 18.08 СЗ 1 20 км 6/0
[Ac As Ci sp]
+14.9 +14.2 96 +15 +15 холодно 1015.4 1000.3
05 18.08 С 1 25 км 5/3 1000 м
[Sc Ac trans Ci sp]
+14.5 +13.6 94 +15 +15 холодно 1015.6 1000.4
06 18.08 штиль 0 35 км 4/1 1000 м
[Sc Ac trans Ci fib]
+18.1 +15.4 84 +18 +21 по сезону 1015.7 1000.7 +14.4
07 18.08 Ю 1 35 км 4/0
[Ci fib]
+21.1 +16.3 74 +24 +30 комфорт 1015.4 1000.6
08 18.08 Ю 1 40 км 4/0
[Ci fib]
+23.3 +15.8 63 +28 +38 душно 1015.3 1000.6
09 18.08 Ю 2 40 км 1/0
[Ci fib]
+25.6 +15.9 55 +29 +41 душно 1015.2 1000.6
10 18.08 Ю 1 40 км ясно +27.1 +13.9 44 +29 +46 жарко 1015.1 1000.6
11 18.08 З 2 40 км ясно +28.3 +15.6 46 +31 +47 душно 1014.8 1000.3
12 18.08 Ю 2 40 км ясно +28.9 +15.8 45 +32 +46 душно 1014.4 1000.0
13 18.08 Ю 3 40 км ясно +29.5 +15.6 43 +32 +42 душно 1014.3 999.9
14 18.08 Ю 2 40 км ясно +30.2 +16.3 43 +33 +42 душно 1013.9 999.5
15 18.08 Ю 2 40 км ясно +30.1 +17.3 46 +34 +39 очень
душно
1013.7 999.4
16 18.08 Ю 3 40 км 1/0
[Ci fib]
+30.5 +16.9 44 +34 +36 очень
душно
1013.3 999.0
17 18.08 Ю 2 40 км 3/0
[Ci fib]
+29.8 +17.5 48 +34 +34 очень
душно
1013.1 998.7
18 18.08 Ю 1 30 км 4/0
[Ci fib]
+28.2 +18.7 56 +33 +33 очень
душно
1013.0 998.6 +31.3
19 18.08 С 2 30 км 4/0
[Ci fib]
+23.6 +19.5 78 +29 +29 душно 1013.8 999.2
20 18.08 СЗ 1 20 км ясно +22.3 +19.2 83 +28 +28 душно 1014.1 999.4
21 18.08 СЗ 1 20 км 3/0
[Ci fib]
+20.8 +19.0 89 +26 +26 душно 1014.0 999.2
00 19.08 СЗ 1 20 км 3/0
[Ci fib]
+18.4 +17.3 93 +20 +20 тепло 1014.5 999.6
03 19.08 С 1 20 км ясно +16.7 +16.0 96 +18 +18 по сезону 1014.8 999.8
04 19.08 С 1 30 км 1/0
[Ac trans]
+16.2 +15.7 97 +17 +17 прохладно 1015.0 999.9
05 19.08 С 1 50 км 1/0
[Ac trans]
+17.0 +16.3 96 +18 +19 по сезону 1015.4 1000.4
06 19.08 Ю 1 50 км ясно +21.2 +15.9 72 +25 +27 комфорт 1015.3 1000.5 +16.0
07 19.08 Ю 1 50 км ясно +23.5 +15.6 61 +27 +33 душно 1015.4 1000.7
08 19.08 З 2 50 км ясно +26.4 +15.1 50 +29 +38 жарко 1015.6 1001.0
09 19.08 Ю 2 50 км ясно +27.7 +15.6 48 +31 +43 душно 1015.5 1001.0
10 19.08 Ю 2 50 км 3/0
[Ci fib]
+29.1 +16.0 45 +32 +46 душно 1015.5 1001.1
11 19.08 ЮЗ 2 50 км 3/1 1000 м
[Cu hum Ci fib]
+30.4 +17.1 45 +34 +47 очень
душно
1015.3 1000.9
12 19.08 ЮЗ 2 50 км 3/1 1000 м
[Cu hum Ci fib]
+31.4 +17.7 44 +36 +48 очень
душно
1015.3 1001.0
13 19.08 ЮЗ 2 50 км 3/1 1000 м
[Cu hum Ci fib]
+31.7 +17.3 42 +35 +46 очень
душно
1015.4 1001.1
14 19.08 ЮЗ 2 50 км 3/1 1000 м
[Cu med, cong Ci fib]
+31.8 +16.6 40 +35 +42 очень
душно
1015.1 1000.8
15 19.08 СЗ 1 50 км 3/1 1000 м
[Cu hum Ci fib]
+31.9 +16.5 40 +35 +40 очень
душно
1015.0 1000.7
16 19.08 Ю 1 40 км 3/1 1000 м
[Cu hum Ci fib]
+31.5 +16.5 41 +35 +37 очень
душно
1014.8 1000.5
17 19.08 Ю 2 40 км 1/0
[Ci fib]
+30.7 +17.2 44 +34 +35 очень
душно
1014.7 1000.4
18 19.08 С 1 30 км 3/0
[Ci fib]
+27.5 +18.7 59 +33 +33 очень
душно
1015.0 1000.5 +32.4
19 19.08 С 1 25 км 1/0
[Ci fib]
+25.0 +19.1 70 +30 +30 душно 1015.5 1000.9
20 19.08 С 1 20 км ясно +23.6 +19.0 75 +28 +28 душно 1016.1 1001.4
21 19.08 С 1 20 км ясно +23.0 +18.5 76 +29 +29 очень
душно
1016.4 1001.7
00 20.08 СЗ 1 20 км ясно +20.4 +17.9 86 +25 +25 комфорт 1017.0 1002.1
03 20.08 СЗ 1 20 км ясно +19.0 +17.7 92 +22 +22 комфорт 1017.4 1002.5
04 20.08 СЗ 1 20 км 1/0
[Ci fib]
+18.2 +17.2 94 +20 +20 по сезону 1017.9 1002.9
05 20.08 СЗ 1 30 км ясно +18.8 +17.8 94 +21 +22 комфорт 1018.2 1003.2
06 20.08 СЗ 1 30 км ясно +22.2 +19.0 82 +28 +30 душно 1018.0 1003.2 +18.0
07 20.08 ЮВ 1 30 км ясно +25.9 +19.3 67 +31 +38 очень
душно
1018.3 1003.7
08 20.08 ЮВ 1 30 км ясно +26.8 +18.7 61 +32 +42 очень
душно
1018.6 1004.0
09 20.08 СВ 1 30 км 1/0
[Ac trans]
+28.7 +19.4 57 +34 +48 очень
душно
1018.5 1004.0
10 20.08 СВ 1 35 км ясно +29.4 +19.0 54 +35 +52 опасность
солнечного
удара
1018.3 1003.9
11 20.08 В 1 35 км 1/1 1000 м
[Cu hum]
+30.7 +19.6 52 +37 +53 опасность
солнечного
удара
1017.9 1003.5
12 20.08 Ю 1 40 км 1/1 1000 м
[Cu hum]
+31.1 +17.7 45 +35 +50 очень
душно
1017.3 1003.0
13 20.08 ЮВ 2 40 км 3/3 1000 м
[Cu med, cong]
+31.8 +17.1 41 +35 +43 очень
душно
1017.1 1002.8
14 20.08 В 2 35 км 1/1 1000 м
[Cu hum]
+32.2 +18.1 43 +37 +44 очень
душно
1016.8 1002.5
15 20.08 В 2 35 км 1/1 1000 м
[Cu hum]
+32.2 +18.1 43 +37 +41 очень
душно
1016.7 1002.4
16 20.08 В 2 30 км 1/1 1000 м
[Cu hum]
+31.9 +17.6 43 +36 +38 очень
душно
1016.4 1002.1
17 20.08 В 1 25 км ясно +31.2 +18.3 46 +36 +36 очень
душно
1016.3 1002.0
18 20.08 В 1 20 км ясно +29.0 +18.1 52 +34 +34 очень
душно
1016.4 1002.0 +32.5
19 20.08 С 1 20 км ясно +25.5 +19.8 71 +31 +31 очень
душно
1016.8 1002.2
20 20.08 СЗ 1 20 км ясно +24.3 +19.6 75 +30 +30 очень
душно
1017.2 1002.5
21 20.08 СЗ 1 20 км ясно +23.8 +19.5 77 +29 +29 душно 1017.0 1002.3
00 21.08 СЗ 1 20 км ясно +21.3 +19.3 88 +26 +26 душно 1016.5 1001.7
03 21.08 З 1 20 км ясно +20.1 +18.9 93 +25 +25 комфорт 1016.9 1002.0
04 21.08 СЗ 1 25 км 1/0
[Ac trans]
+19.8 +18.7 93 +24 +24 комфорт 1017.3 1002.4
05 21.08 СВ 1 30 км ясно +21.1 +19.4 90 +26 +26 душно 1018.4 1003.6
06 21.08 СВ 3 30 км 3/3 1000 м
[Cu med, cong Ac trans]
+24.0 +18.0 69 +28 +30 душно 1019.3 1004.6 +19.5
07 21.08 С 2 35 км 6/3 1000 м
[Cu med, cong Ac trans Ci fib]
+23.1 +16.8 68 +28 +31 душно 1020.6 1005.8
08 21.08 СВ 5 35 км 6/4 1000 м
[Cu Sc Ac trans]
+22.9 +14.8 60 +27 +29 душно 1021.5 1006.7
09 21.08 С 4 35 км 8/6 1000 м
[Cu Sc Ac trans]
+23.3 +15.3 61 +28 +30 душно 1022.0 1007.2
10 21.08 СВ 4 40 км 8/8 1000 м
[Cu Sc Ac trans]
+24.2 +13.6 52 +26 +28 жарко 1022.4 1007.6
11 21.08 СВ 5 40 км 8/6 1000 м
[Cu Sc Ac trans]
+24.6 +14.5 53 +27 +29 жарко 1022.5 1007.7
12 21.08 СВ 5 40 км 8/5 1000 м
[Cu Sc Ac trans]
+25.8 +14.5 50 +28 +31 жарко 1022.3 1007.6
13 21.08 С 4 40 км 8/5 1000 м
[Cu Sc Ac trans]
+25.0 +13.5 49 +27 +30 жарко 1022.3 1007.6
14 21.08 С 5 40 км 6/3 1000 м
[Cu Sc Ac trans]
+24.7 +14.1 52 +27 +29 жарко 1022.3 1007.6
15 21.08 СВ 6 40 км 6/5 1000 м
[Cu Sc Ac trans]
+24.4 +12.5 47 +26 +27 жарко 1022.8 1008.0
16 21.08 СВ 3 35 км 6/4 1000 м
[Cu Sc Ac trans]
+25.2 +11.7 43 +27 +27 жарко 1023.0 1008.3
17 21.08 СВ 3 35 км 8/5 1000 м
[Cu Sc Ac trans]
+22.6 +13.0 55 +26 +26 жарко 1023.1 1008.2
18 21.08 СВ 4 35 км 10/10 1000 м
[Sc]
+21.9 +12.5 55 +24 +24 комфорт 1023.5 1008.6 +25.9
19 21.08 С 2 20 км 8/5 1000 м
[Sc Ac trans]
+20.9 +12.8 60 +24 +24 комфорт 1024.0 1009.0
20 21.08 СВ 2 20 км 5/4 1000 м
[Sc Ac trans]
+20.2 +12.2 60 +23 +23 комфорт 1024.5 1009.5
21 21.08 СВ 2 20 км 8/8 1000 м
[Sc]
+20.2 +11.8 58 +23 +23 комфорт 1024.7 1009.7
00 22.08 С 2 20 км 9/9 1000 м
[Sc]
+19.9 +11.6 59 +22 +22 комфорт 1024.8 1009.8
03 22.08 СВ 1 20 км 8/8 1000 м
[Sc]
+19.4 +11.8 61 +22 +22 комфорт 1024.5 1009.4
04 22.08 СВ 1 20 км 9/9 1000 м
[Sc]
+19.0 +11.5 62 +21 +21 комфорт 1024.5 1009.4
05 22.08 С 1 20 км 9/8 1000 м
[Cu Sc Ac trans]
+19.2 +12.0 63 +21 +22 комфорт 1024.6 1009.5
06 22.08 СВ 3 20 км 8/5 1000 м
[Cu Sc Ac trans]
+19.9 +11.6 59 +22 +22 комфорт 1024.5 1009.5 +18.8
07 22.08 СВ 1 25 км 9/5 1000 м
[Sc Ac trans]
+20.2 +12.0 59 +23 +25 комфорт 1024.4 1009.4
08 22.08 СВ 1 25 км 9/5 1000 м
[Sc Ac trans]
+21.0 +12.4 58 +25 +27 комфорт 1024.3 1009.3
09 22.08 В 1 25 км 8/3 1000 м
[Sc Ac trans]
+22.0 +12.8 56 +25 +30 комфорт 1023.9 1009.0
10 22.08 В 1 25 км 8/5 1000 м
[Sc Ac trans Ci sp]
+23.4 +13.8 55 +27 +33 душно 1023.6 1008.8
11 22.08 СЗ 1 20 км гроза без осадков 10/8 1000 м
[Cb cap Ac trans]
+22.5 +13.8 58 +26 +27 жарко 1023.6 1008.7

 

Местоположение метеостанции Загреб (Хорватия): широта 45.82 долгота 16.03 высота над уровнем моря 128 м.

В архиве по умолчанию представлена погода в Загребе за последнюю неделю. Архивные данные за месяц целиком и за предыдущие месяцы, начиная с января 2011 года, Вы можете получить, выбрав интересующий диапазон дат из раскрывающегося списка и нажав кнопку "Ввод!".


*Определитесь, кто Вы:
робот инопланетянин человек

Внимание! Время в таблицах - всемирное. Для получения местного времени необходимо прибавить поправку, которая равна 1 ч.

Смотрите также архив погоды в соседних городах и на ближайших метеорологических станциях:

Погода в Загреб-Градеце (Хорватия) (4 км)
Погода в Загреб аэропорту (Хорватия) (10 км)
Погода в Пунтиярке (Хорватия) (12 км)
Погода в Крапине (Хорватия) (36 км)
Погода в Церки-об-Крки (Словения) (40 км)
Погода в Сисаке (Хорватия) (44 км)
Погода в Крижевцах (Хорватия) (47 км)
Погода в Карловаце (Хорватия) (50 км)
Погода в Вараздине (Хорватия) (60 км)
Погода на Лиске (Словения) (64 км)

Пояснения к столбцам:

Ветер - указаны скорость ветра в м/с - средняя за 10 мин, порывы в срок и между сроками (в фигурных скобках) и направление, откуда дует ветер: С - северный, СВ - северо-восточный, В - восточный, ЮВ - юго-восточный, Ю - южный, ЮЗ - юго-западный, З - западный, СЗ - северо-западный.
Видимость - горизонтальная дальность видимости в метрах или километрах. При видимости от 1 до 10 км при отсутствии осадков обычно наблюдается дымка, при ухудшении видимости до 1 км и менее - туман. В сухую погоду видимость может ухудшаться дымом, пылью или мглою.
Явления - указаны атмосферные явления, наблюдавшиеся в срок или в последний час перед сроком; фигурными скобками обозначены явления, наблюдавшиеся между сроками (за 1-3 часа до срока); квадратными скобками обозначены град или гололедные отложения с указанием их диаметра в мм.
Облачность - указаны через наклонную черту общая и нижняя облачность в баллах и высота нижней границы облаков в метрах; квадратными скобками обозначены формы облаков: Ci - перистые, Cs - перисто-слоистые, Cc - перисто-кучевые, Ac - высококучевые, As - высокослоистые, Sc - слоисто-кучевые, Ns - слоисто-дождевые, Cu - кучевые, Cb - кучево-дождевые. Подробнее классификацию облаков см. в Атласе облаков (PDF).
T - Температура воздуха - температура, измеренная на высоте 2 м над землей.
Td - Температура точки росы - температура, при понижении до которой содержащийся в воздухе водяной пар достигнет насыщения.
f - Относительная влажность воздуха - влажноcть воздуха, измеренная на высоте 2 м над землей.
Te - Эффективная температура - температура, которую ощущает одетый по сезону человек в тени. Характеристика душности погоды. При расчете учитывается влияние влажности воздуха и скорости ветра на теплоощущения человека.
Tes - Эффективная температура на солнце - температура, которую ощущает человек, с поправкой на солнечный нагрев. Характеристика знойности погоды. Зависит от высоты солнца над горизонтом, облачности и скорости ветра. Ночью, в пасмурную погоду, а также при ветре 12 м/с и более поправка равна нулю.
P - Атмосферное давление - приведенное к уровню моря атмосферное давление.
Po - Атмосферное давление - измеренное на уровне метеостанции атмосферное давление.
Tmin - Минимальная температура - минимум температуры воздуха на высоте 2 м над землей.
Tmax - Максимальная температура - максимум температуры воздуха на высоте 2 м над землей.
R - Количество осадков - Количество выпавших осадков за период времени, мм. При наведении курсора мыши на число - период времени, за который выпало указанное количество осадков.
R24 - Количество осадков - Количество выпавших осадков за 24 часа, мм.
S - Снежный покров - Высота снежного покрова, см. При наведении курсора мыши на число - состояние снежного покрова и степень покрытия местности в баллах.